EW9066 Weather Reports


Display with metric or nautical units.
time (UTC)temp
F
wind
direction
speed
MPH
gust
MPH
rain 1hr
in
rain 24hr
in
rain mn
in
humidity
%
barometer
mb
20260505193010 44 5 8.0 13.0 0.00 0.00 0.00 55 1019.5
20260505191510 43 345 7.0 14.0 0.00 0.00 0.00 60 1019.6
20260505190009 42 350 9.0 15.0 0.00 0.00 0.00 62 1019.5
20260505184509 42 327 7.0 13.0 0.00 0.00 0.00 65 1019.5
20260505183008 40 284 6.0 11.0 0.00 0.00 0.00 70 1019.6
20260505181509 40 316 6.0 12.0 0.00 0.00 0.00 63 1019.6
20260505180008 42 347 10.0 17.0 0.00 0.00 0.00 63 1019.5
20260505174508 41 333 9.0 16.0 0.00 0.00 0.00 67 1019.4
20260505173008 41 313 6.0 10.0 0.00 0.00 0.00 68 1019.3
20260505171506 40 348 7.0 12.0 0.00 0.00 0.00 73 1019.3
20260505170009 39 325 6.0 13.0 0.00 0.00 0.00 76 1019.3
20260505164502 40 347 10.0 16.0 0.00 0.00 0.00 68 1019.3
20260505163005 40 5 5.0 11.0 0.00 0.00 0.00 65 1019.1
20260505161502 39 347 7.0 10.0 0.00 0.00 0.00 68 1019.2
20260505153100 37 59 1.0 5.0 0.00 0.00 0.00 76 1019.3
20260505151614 38 63 0.0 7.0 0.00 0.00 0.00 76 1019.5
20260505124549 33 104 1.0 6.0 0.00 0.00 0.00 60 1018.1
20260505123045 31 103 5.0 7.0 0.00 0.00 0.00 64 1017.9
20260505121545 30 102 5.0 7.0 0.00 0.00 0.00 66 1017.8
20260505120103 29 99 1.0 5.0 0.00 0.00 0.00 69 1017.7
20260505114540 30 99 0.0 0.0 0.00 0.00 0.00 68 1017.2
20260505113044 30 99 0.0 0.0 0.00 0.00 0.00 68 1017.1
20260505111535 29 99 0.0 0.0 0.00 0.00 0.00 68 1017.1
20260505101528 29 99 0.0 0.0 0.00 0.00 0.00 62 1016.7
20260505100028 30 99 0.0 2.0 0.00 0.00 0.00 61 1016.6
20260505094527 29 99 0.0 2.0 0.00 0.00 0.00 61 1016.5
20260505093028 29 99 0.0 1.0 0.00 0.00 0.00 62 1016.4
20260505091528 29 99 0.0 3.0 0.00 0.00 0.00 61 1016.5
20260505090037 29 99 0.0 0.0 0.00 0.00 0.00 61 1016.4
20260505084521 30 99 0.0 0.0 0.00 0.00 0.00 58 1016.3
20260505083018 31 99 0.0 0.0 0.00 0.00 0.00 55 1016.3
20260505081518 31 99 0.0 0.0 0.00 0.00 0.00 55 1016.2
20260505080016 31 99 0.0 5.0 0.00 0.00 0.00 55 1015.9
20260505074516 31 99 0.0 0.0 0.00 0.00 0.00 55 1016.0
20260505073027 32 99 0.0 2.0 0.00 0.00 0.00 53 1016.0
20260505071559 34 99 0.0 0.0 0.00 0.00 0.00 49 1015.9
20260505070052 35 99 2.0 7.0 0.00 0.00 0.00 48 1015.7
20260505064535 35 99 2.0 6.0 0.00 0.00 0.00 49 1015.7
20260505063016 37 90 2.0 5.0 0.00 0.00 0.00 44 1015.4
20260505061527 39 90 1.0 7.0 0.00 0.00 0.00 41 1015.3
20260505060008 40 82 5.0 8.0 0.00 0.00 0.00 38 1015.2
20260505054506 42 89 5.0 14.0 0.00 0.00 0.00 36 1015.0
20260505053002 43 57 9.0 14.0 0.00 0.00 0.00 34 1014.7
20260505051558 44 79 8.0 13.0 0.00 0.00 0.00 32 1014.5
20260505041555 46 321 1.0 5.0 0.00 0.00 0.00 40 1013.6
20260505040044 47 329 0.0 4.0 0.00 0.00 0.00 38 1013.5
20260505034542 48 332 2.0 4.0 0.00 0.00 0.00 36 1013.4
20260505033040 48 347 2.0 3.0 0.00 0.00 0.00 35 1013.3
20260505031637 49 350 0.0 1.0 0.00 0.00 0.00 33 1013.1
20260505030035 49 350 0.0 2.0 0.00 0.00 0.00 32 1012.9
20260505024539 50 350 0.0 3.0 0.00 0.00 0.00 32 1012.9
20260505023031 50 350 1.0 4.0 0.00 0.00 0.00 31 1012.7
20260505021530 51 350 2.0 7.0 0.00 0.00 0.00 29 1012.7
20260505020032 51 5 3.0 8.0 0.00 0.00 0.00 29 1012.5
20260505014534 52 350 5.0 7.0 0.00 0.00 0.00 30 1012.5
20260505013027 52 348 3.0 8.0 0.00 0.00 0.00 29 1012.5
20260505011533 52 5 4.0 12.0 0.00 0.00 0.00 28 1012.5
20260505010026 52 351 9.0 13.0 0.00 0.00 0.00 27 1012.5
20260505004542 52 59 8.0 16.0 0.00 0.00 0.00 28 1012.5
20260505003024 53 5 9.0 16.0 0.00 0.00 0.00 28 1012.5
20260505001523 53 360 10.0 16.0 0.00 0.00 0.00 26 1012.3
20260505000035 53 341 8.0 16.0 0.00 0.00 0.00 28 1012.2
20260504234519 53 348 8.0 17.0 0.00 0.00 0.00 28 1012.1
20260504233017 53 355 11.0 16.0 0.00 0.00 0.00 28 1012.1
20260504231515 54 350 7.0 16.0 0.00 0.00 0.00 27 1012.1
20260504230016 54 5 13.0 21.0 0.00 0.00 0.00 26 1011.9
20260504224518 54 350 13.0 21.0 0.00 0.00 0.00 26 1011.8
20260504223017 54 340 6.0 15.0 0.00 0.00 0.00 27 1011.7
20260504221517 53 346 10.0 16.0 0.00 0.00 0.00 28 1011.7
20260504220017 53 355 7.0 11.0 0.00 0.00 0.00 36 1011.7
20260504214514 53 355 6.0 12.0 0.00 0.00 0.00 38 1011.7
20260504213013 53 346 10.0 17.0 0.00 0.00 0.00 37 1011.5
20260504211513 54 349 9.0 17.0 0.00 0.00 0.00 37 1011.5
20260504210016 53 348 8.0 12.0 0.00 0.00 0.00 38 1011.3
20260504204512 53 342 4.0 10.0 0.00 0.00 0.00 39 1011.3
20260504203012 54 355 8.0 14.0 0.00 0.00 0.00 38 1011.2
20260504201514 54 273 4.0 9.0 0.00 0.00 0.00 39 1011.2
20260504200012 53 334 4.0 8.0 0.00 0.00 0.00 40 1011.1
20260504194512 53 5 6.0 10.0 0.00 0.00 0.00 39 1011.2